Regional Weather Roundup
Issued by NWS

Home | Current Version | Previous Version | Graphics & Text | Print | Product List | Glossary On
Versions: 1 2 3 4 5 6 7 8 9 10 11 12 13 14 15 16 17 18 19 20 21 22 23 24 25 26 27 28 29 30 31 32 33 34 35 36 37 38 39 40 41 42 43 44 45 46 47 48 49 50
000
ASUS45 KCYS 231810
RWRWY

WYOMING REGIONAL WEATHER ROUNDUP
NATIONAL WEATHER SERVICE CHEYENNE WY
1200 PM MDT THU MAR 23 2017

NOTE:  "FAIR" INDICATES FEW OR NO CLOUDS BELOW 12,000 FEET
WITH NO SIGNIFICANT WEATHER AND/OR OBSTRUCTIONS TO VISIBILITY.

WYZ001-231900-
YELLOWSTONE NATIONAL PARK

CITY           SKY/WX    TMP DP  RH WIND       PRES   REMARKS
LK YELLOWSTONE   N/A     36  26  67 NW9G23    29.83S WCI  29
6HR MIN TEMP:  25; 6HR MAX TEMP:  36;

W YELLOWSTONE  NOT AVBL

$$
WYZ002>013-054>058-071-098>099-231900-
NORTHERN WYOMING

CITY           SKY/WX    TMP DP  RH WIND       PRES   REMARKS
JACKSON        MOSUNNY   39  30  70 N10       29.77R WCI  32
CODY           CLOUDY    44  31  60 N21G32    29.79R
GREYBULL       LGT RAIN  47  41  80 NW24G31   29.72R
6HR MIN TEMP:  46; 6HR MAX TEMP:  49; 6HR PCP:  0.07;

WORLAND        LGT RAIN  45  44  97 N15G21    29.72R FOG
6HR MIN TEMP:  45; 6HR MAX TEMP:  47; 6HR PCP:  0.22;

SHERIDAN       LGT RAIN  44  40  85 NW6       29.80R
6HR MIN TEMP:  44; 6HR MAX TEMP:  46; 6HR PCP:  0.23;

BUFFALO        LGT RAIN  41  37  86 NW18G26   29.77S FOG
6HR MIN TEMP:  41; 6HR MAX TEMP:  44; 6HR PCP:  0.17;

GILLETTE       RAIN      42  40  92 N17       29.75R FOG
6HR MIN TEMP:  34; 6HR MAX TEMP:  44; 6HR PCP:  0.05;

HULETT         RAIN      41  39  93 N13       29.74R
NEWCASTLE      FAIR      54  39  58 NW14G25   29.68S

$$
WYZ014>020-022>026-101>103-231900-
CENTRAL WYOMING

CITY           SKY/WX    TMP DP  RH WIND       PRES   REMARKS
BIG PINEY      LGT SNOW  34  33  96 N10       29.74R FOG     WCI  26
6HR MIN TEMP:  32; 6HR MAX TEMP:  34; 6HR PCP:  0.27;

PINEDALE       LGT SNOW  32  32 100 N12       29.74R WCI  23
DUBOIS         SNOW      32  32 100 W5        29.75R VSB 1/2 WCI  27
LANDER         LGT RAIN  35  34  96 SW9       29.76R WCI  28
6HR MIN TEMP:  34; 6HR MAX TEMP:  41; 6HR PCP:  0.59;

RIVERTON       LGT RAIN  38  36  92 N10       29.76S WCI  31
6HR MIN TEMP:  38; 6HR MAX TEMP:  42; 6HR PCP:  0.57;

CASPER         CLOUDY    46  42  86 N7        29.72S
6HR MIN TEMP:  35; 6HR MAX TEMP:  47; 6HR PCP:  0.02;

DOUGLAS        PTSUNNY   59  41  51 NW10      29.68F
6HR MIN TEMP:  35; 6HR MAX TEMP:  60;


$$
WYZ021-027>030-104>119-231900-
SOUTHERN WYOMING

CITY           SKY/WX    TMP DP  RH WIND       PRES   REMARKS
EVANSTON       LGT SNOW  33  31  92 SW6       29.77R VSB 3/4 WCI  28
6HR MIN TEMP:  32; 6HR MAX TEMP:  33; 6HR PCP: TRACE;

KEMMERER       SNOW      34  32  93 W5        29.75R VSB<1/4 WCI  30
FORT BRIDGER   CLOUDY    40  39  99 NW12      29.77R WCI  33
ROCK SPRINGS   CLOUDY    45  36  70 SW13      29.73R
6HR MIN TEMP:  36; 6HR MAX TEMP:  45; 6HR PCP: TRACE;

DIXON            N/A     55  28  36 S21G30    29.75F
RAWLINS        PTSUNNY   54  27  35 SW24G35   29.72F
6HR MIN TEMP:  31; 6HR MAX TEMP:  55;

SARATOGA       FAIR      55  21  26 SW24G31   29.73F
LARAMIE        FAIR      58  16  19 SW28G40   29.70F
6HR MIN TEMP:  26; 6HR MAX TEMP:  59;

CHEYENNE       FAIR      66  22  18 S21       29.66F
6HR MIN TEMP:  38; 6HR MAX TEMP:  66;

TORRINGTON     FAIR      63  38  39 S9        29.61F
6HR MIN TEMP:  35; 6HR MAX TEMP:  63;

PINE BLUFFS    FAIR      68  27  21 W5        29.65F

$$



USA.gov is the U.S. government's official web portal to all federal, state and local government web resources and services.